Weather History for South Lake Tahoe, CA

Change the Weather History Date:

Saturday, January 5, 2013

  Actual Average Record
Temperature  
Mean Temperature 28 °F 29 °F  
Max Temperature 48 °F 43 °F 60 °F (2012)
Min Temperature 8 °F 16 °F -5 °F (1949)
Degree Days  
Heating Degree Days 37 36  
Month to date heating degree days 210 180  
Since 1 July heating degree days 3072 3363  
Cooling Degree Days 0 0  
Month to date cooling degree days 0 0  
Year to date cooling degree days 0 0  
Moisture  
Dew Point 17 °F    
Average Humidity 58    
Maximum Humidity 83    
Minimum Humidity 33    
Precipitation  
Precipitation 0.00 in - 3.69 in (1956)
Month to date precipitation 0.00  
Year to date precipitation 0.00  
Sea Level Pressure  
Sea Level Pressure 30.19 in    
Wind  
Wind Speed 4 mph (SSW)    
Max Wind Speed 16 mph    
Max Gust Speed 29 mph    
Visibility 10 miles    
Events      
T = Trace of Precipitation, MM = Missing Value Source: NWS Daily Summary

Daily Weather History Graph

Daily Weather History Graph

Search for Another Location

Airport:

Trip Planner

Search our weather history database for the weather conditions in past years. The results will help you decide how hot, cold, wet, or windy it might be!

Date:

Astronomy

Jan. 05, 2013 Rise Set
Actual Time 7:18 AM PST 4:52 PM PST
Civil Twilight 6:49 AM PST 5:22 PM PST
Nautical Twilight 6:15 AM PST 5:55 PM PST
Astronomical Twilight 5:43 AM PST 6:27 PM PST
Moon 12:32 AM PST (1/5) 11:43 AM PST (1/5)
Length of Visible Light 10h 33m
Length of Day
9h 33m
Last Quarter, 43% of the Moon is Illuminated
Jan 5
Last Quarter
Jan 11
New
Jan 18
First Quarter
Jan 26
Full
Feb 3
Last Quarter

Hourly Weather History & Observations

Time (PST) Temp. Windchill Dew Point Humidity Pressure Visibility Wind Dir Wind Speed Gust Speed Precip Events Conditions
12:53 AM 17.1 °F 11.7 °F 12.0 °F 81% 30.26 in 8.0 mi SSW 3.5 mph - N/A   Clear
1:53 AM 16.0 °F 10.4 °F 10.9 °F 81% 30.27 in 8.0 mi SSW 3.5 mph - N/A   Clear
2:53 AM 12.9 °F 6.9 °F 7.0 °F 77% 30.27 in 9.0 mi South 3.5 mph - N/A   Clear
3:53 AM 12.9 °F 6.9 °F 7.0 °F 77% 30.29 in 8.0 mi South 3.5 mph - N/A   Clear
4:53 AM 10.9 °F 4.7 °F 6.1 °F 81% 30.32 in 10.0 mi SSW 3.5 mph - N/A   Clear
5:53 AM 10.0 °F 3.6 °F 3.9 °F 76% 30.36 in 10.0 mi SSW 3.5 mph - N/A   Clear
6:53 AM 10.0 °F - 3.9 °F 76% 30.36 in 10.0 mi Calm Calm - N/A   Clear
7:53 AM 10.0 °F 1.8 °F 3.9 °F 76% 30.36 in 9.0 mi South 4.6 mph - N/A   Clear
8:53 AM 16.0 °F - 10.9 °F 81% 30.35 in 10.0 mi Calm Calm - N/A   Clear
9:53 AM 24.1 °F - 19.9 °F 84% 30.30 in 10.0 mi Calm Calm - N/A   Clear
10:53 AM 37.9 °F 32.7 °F 27.0 °F 65% 30.22 in 10.0 mi NNE 6.9 mph - N/A   Clear
11:53 AM 42.1 °F 37.7 °F 28.0 °F 58% 30.18 in 10.0 mi NE 6.9 mph - N/A   Clear
12:53 PM 46.0 °F - 27.0 °F 47% 30.13 in 10.0 mi Calm Calm - N/A   Clear
1:53 PM 46.9 °F - 23.0 °F 39% 30.11 in 10.0 mi SW 8.1 mph - N/A   Clear
2:53 PM 46.0 °F 42.5 °F 23.0 °F 40% 30.11 in 10.0 mi Variable 6.9 mph - N/A   Clear
3:53 PM 44.1 °F 37.1 °F 18.0 °F 35% 30.11 in 10.0 mi South 15.0 mph 21.9 mph N/A   Clear
4:53 PM 39.9 °F 37.8 °F 21.9 °F 49% 30.14 in 10.0 mi Variable 3.5 mph - N/A   Clear
5:53 PM 39.0 °F 36.8 °F 24.1 °F 55% 30.14 in 10.0 mi SSW 3.5 mph - N/A   Partly Cloudy
6:53 PM 39.9 °F 32.5 °F 24.1 °F 53% 30.12 in 10.0 mi South 12.7 mph - N/A   Clear
7:53 PM 34.0 °F - 23.0 °F 64% 30.13 in 10.0 mi Calm Calm - N/A   Mostly Cloudy
8:53 PM 32.0 °F - 24.1 °F 73% 30.09 in 10.0 mi Calm Calm - N/A   Mostly Cloudy
9:53 PM 30.0 °F - 23.0 °F 75% 30.05 in 10.0 mi Calm Calm - N/A   Partly Cloudy
10:53 PM 27.0 °F - 19.9 °F 75% 29.99 in 10.0 mi Calm Calm - N/A   Mostly Cloudy
11:53 PM 24.1 °F - 19.0 °F 81% 29.96 in 10.0 mi Calm Calm - N/A   Clear